Flag for Germany Weather past 2 weeks in Freising, Bavaria, Germany

Now
46 °F

Light rain. Overcast.


Feels Like: 41 °F
Forecast: 37 / 46 °F
Wind: 8 mph from West

Location: Muenchen Flughafen

Current Time: Mar 1, 2015 at 5:00:19 PM

Latest Report: Mar 1, 2015 at 4:00 PM


Visibility: 8 mi

Pressure: 29.83 "Hg

Humidity: 84%

Dew point: 41 °F

Location of FreisingLocation

Historic Weather in Freising — Graph

°F

Freising temperature yesterday

Maximum temperature yesterday: 38 °F (at 3:00 PM)
Minimum temperature yesterday: 30 °F (at 8:00 PM)
Average temperature yesterday: 35 °F

Past Weeks' High & Low Weather Summary

 TemperatureHumidityPressure
High47 °F (Feb 20, 4:00 PM)100% (Feb 16, 11:00 AM)30.80 "Hg (Feb 16, 11:00 AM)
Low16 °F (Feb 20, 6:00 AM)44% (Feb 27, 3:00 PM)29.50 "Hg (Feb 21, 2:00 PM)
Average32 °F90%30.09 "Hg
* Reported Feb 14 4:00 PM — Mar 1 4:00 PM, Freising, Weather by CustomWeather, © 2015

Note: Actual official high and low records may vary slightly from our data, if they occured in-between our weather recording intervals... More about our weather records

Advertising

Freising weather history for previous 24 hours

 ConditionsComfort  
Time TempWeatherWind HumidityBarometerVisibility
4:00 PM
Sun, Mar 1
46 °FLight rain. Overcast.8 mph84%29.83 "Hg8 mi
3:00 PM46 °FOvercast.9 mph82%29.83 "Hg19 mi
2:00 PM44 °FSprinkles. Overcast.10 mph89%29.85 "Hg2 mi
1:00 PM42 °FOvercast.5 mph82%29.85 "Hg11 mi
12:00 PM38 °FOvercast.3 mph93%29.88 "Hg11 mi
11:00 AM36 °FLight rain. Overcast.5 mph91%29.91 "Hg6 mi
10:00 AM35 °FLight rain. Overcast.5 mph91%29.93 "Hg9 mi
9:00 AM35 °FLight snow. Overcast.3 mph87%29.94 "Hg6 mi
8:00 AM33 °FOvercast.2 mph86%29.95 "Hg11 mi
7:00 AM32 °FOvercast.1 mph88%29.96 "Hg6 mi
6:00 AM28 °FFog.1 mph98%29.99 "Hg3 mi
5:00 AM26 °FFog.No wind97%30.01 "Hg2 mi
4:00 AM26 °FFog.1 mph97%30.02 "Hg2 mi
3:00 AM25 °FFog.2 mph96%30.05 "Hg3 mi
2:00 AM27 °FFog.No wind98%30.07 "Hg4 mi
1:00 AM27 °FFog.1 mph100%30.10 "Hg4 mi
12:00 AM28 °FFog.1 mph99%30.10 "Hg5 mi
11:00 PM
Sat, Feb 28
31 °FOvercast.No wind97%30.12 "Hg7 mi
10:00 PM33 °FOvercast.2 mph96%30.13 "Hg7 mi
9:00 PM32 °FOvercast.1 mph97%30.15 "Hg8 mi
8:00 PM30 °FPassing clouds.1 mph98%30.16 "Hg9 mi
7:00 PM32 °FPassing clouds.1 mph91%30.15 "Hg10 mi
6:00 PM36 °FPassing clouds.2 mph81%30.14 "Hg16 mi
5:00 PM38 °FPartly sunny.1 mph79%30.14 "Hg19 mi
Weather by CustomWeather, © 2015

See weather overviewHow to use our weather pages